Other Public Products
Issued by NWS Charleston, SC

Current Version | Previous Version | Graphics & Text | Print | Product List | Glossary On
Versions: 1 2 3 4 5 6 7 8 9 10 11 12 13 14 15 16 17 18 19 20 21 22 23 24 25 26 27 28 29 30 31 32 33 34 35 36 37 38 39 40 41 42 43 44 45 46 47 48 49 50
656 FPUS82 KCHS 241427 OPUCHS TEST...KCHS/KSAV Gateway Observations...TEST National Weather Service Charleston SC 900 AM EST TUE JAN 24 2017 NOTE: "fair" indicates few or no clouds below 12,000 feet with no significant weather and/or obstructions to visibility. SCZ050-WAZ558-NCZ071-TXZ119-213-PAZ071-DCZ001-FLZ074-172-MI076- NYZ176-178-MAZ016-IL014-TNZ027-NJZ106-GAZ044-MD014-241500- ...Gateway Observations for Charleston International... CITY SKY/WX TMP DP RH WIND PRES REMARKS Chas Airport SUNNY 52 43 71 NW13 29.72R Seattle MOCLDY 31 30 96 CALM 30.08R Charlotte MOSUNNY 50 41 71 SW6 29.67R Dallas DFW CLOUDY 56 39 53 S13 29.67R Dallas Love CLOUDY 52 39 61 SE12 29.69S Philladelphia CLOUDY 39 35 86 N14 29.43R FOG WCI 31 Wash National MOSUNNY 41 37 86 N16G24 29.51S Baltimore PTSUNNY 40 37 89 NW16G26 29.49R WCI 31 Miami SUNNY 68 58 70 W8 29.92R Detroit CLOUDY 40 38 93 NW8 29.76R WCI 34 Newark DRIZZLE 37 35 92 N20G28 29.37R FOG WCI 27 Laguardia LGT RAIN 39 35 86 N16 29.35R FOG WCI 30 J F K LGT RAIN 39 36 89 N21G28 29.34R FOG WCI 29 Boston Logan LGT RAIN 41 40 96 NE28G41 29.49F FOG Ft. Lauderdale SUNNY 66 56 70 NW10 29.90R Chicago O`Hare CLOUDY 35 31 85 NW8 29.88R WCI 29 Chicago Midway CLOUDY 37 30 75 W8 29.89R WCI 31 Houston Bush PTCLDY 59 56 89 S6 29.81S Houston Hobby PTCLDY 58 56 93 S7 29.81S Nashville CLOUDY 42 33 70 N7 29.95R Atlanta PTSUNNY 45 40 82 NW17 29.83R $$ GAZ044-118-TXZ119-213-NCZ071-DCZ001-MDZ014-506-PAZ021-071-NJZ106- NYZ176-178-MAZ106-OHZ011-021-055-MIZ076-KYZ091-ILZ014-INZ047- MNZ060-241500- ...Gateway Observations for Savannah International... CITY SKY/WX TMP DP RH WIND PRES REMARKS Savannah Arpt SUNNY 53 43 68 W13 29.77R Atlanta PTSUNNY 45 40 82 NW17 29.83R Charlotte MOSUNNY 50 41 71 SW6 29.67R Dallas DFW CLOUDY 56 39 53 S13 29.67R Houston Bush PTCLDY 59 56 89 S6 29.81S Wash National MOSUNNY 41 37 86 N16G24 29.51S Wash Dulles MOSUNNY 40 34 79 NW18G26 29.52S WCI 31 Baltimore PTSUNNY 40 37 89 NW16G26 29.49R WCI 31 Philadelphia CLOUDY 39 35 86 N14 29.43R FOG WCI 31 Newark DRIZZLE 37 35 92 N20G28 29.37R FOG WCI 27 Laguardia LGT RAIN 39 35 86 N16 29.35R FOG WCI 30 J F K LGT RAIN 39 36 89 N21G28 29.34R FOG WCI 29 Boston LGT RAIN 41 40 96 NE28G41 29.49F FOG Pittsburg LGT RAIN 37 37 100 W7 29.64R WCI 32 Akron DRIZZLE 37 34 89 NW10 29.69R FOG WCI 30 Cleveland CLOUDY 36 32 85 N8 29.75S WCI 30 Cincinnati CLOUDY 41 39 93 NW8 29.83R FOG Columbus N/A 41 40 97 NW10 29.78R Detroit CLOUDY 40 38 93 NW8 29.76R WCI 34 Chicago O`Hare CLOUDY 35 31 85 NW8 29.88R WCI 29 Minneapolis CLOUDY 32 25 75 NE3 29.89S Indianapolis CLOUDY 40 33 76 NW12 29.87S WCI 33 $$

USA.gov is the U.S. government's official web portal to all federal, state and local government web resources and services.